| time (UTC) | temp F | wind direction | speed MPH | gust MPH | rain 1hr in | rain 24hr in | rain mn in | humidity % | barometer mb |
| 20260831124216 | 64 | 170 | 5.0 | 7.0 | 0.00 | 0.10 | 0.00 | 50 | 1011.7 |
| 20260831123155 | 63 | 178 | 5.0 | 8.0 | 0.00 | 0.10 | 0.00 | 50 | 1011.7 |
| 20260831122203 | 64 | 174 | 6.0 | 9.0 | 0.00 | 0.10 | 0.00 | 49 | 1011.4 |
| 20260831121206 | 64 | 192 | 6.0 | 9.0 | 0.00 | 0.10 | 0.00 | 48 | 1011.3 |
| 20260831120146 | 65 | 196 | 5.0 | 8.0 | 0.00 | 0.10 | 0.00 | 48 | 1011.3 |
| 20260831115151 | 64 | 201 | 5.0 | 11.0 | 0.00 | 0.10 | 0.00 | 49 | 1011.2 |
| 20260831114154 | 64 | 200 | 6.0 | 12.0 | 0.00 | 0.10 | 0.00 | 49 | 1011.2 |
| 20260831113153 | 64 | 201 | 8.0 | 12.0 | 0.00 | 0.10 | 0.00 | 49 | 1011.2 |
| 20260831112157 | 64 | 194 | 6.0 | 8.0 | 0.00 | 0.10 | 0.00 | 50 | 1011.2 |
| 20260831111204 | 65 | 182 | 6.0 | 9.0 | 0.00 | 0.10 | 0.00 | 49 | 1011.0 |
| 20260831110212 | 65 | 186 | 7.0 | 12.0 | 0.00 | 0.10 | 0.00 | 48 | 1011.0 |
| 20260831105151 | 65 | 188 | 8.0 | 11.0 | 0.00 | 0.10 | 0.00 | 49 | 1011.0 |
| 20260831104156 | 65 | 199 | 8.0 | 12.0 | 0.00 | 0.10 | 0.00 | 50 | 1010.9 |
| 20260831103220 | 65 | 209 | 8.0 | 12.0 | 0.00 | 0.10 | 0.00 | 49 | 1010.9 |
| 20260831102201 | 65 | 208 | 5.0 | 12.0 | 0.00 | 0.10 | 0.00 | 49 | 1011.0 |
| 20260831101204 | 64 | 200 | 6.0 | 10.0 | 0.00 | 0.10 | 0.00 | 51 | 1010.8 |
| 20260831100148 | 64 | 192 | 7.0 | 10.0 | 0.00 | 0.10 | 0.00 | 53 | 1010.8 |
| 20260831095150 | 64 | 186 | 6.0 | 9.0 | 0.00 | 0.10 | 0.00 | 53 | 1010.8 |
| 20260831094153 | 64 | 199 | 5.0 | 8.0 | 0.00 | 0.10 | 0.00 | 53 | 1010.9 |
| 20260831093146 | 64 | 188 | 7.0 | 11.0 | 0.00 | 0.10 | 0.00 | 53 | 1010.9 |
| 20260831092155 | 64 | 176 | 8.0 | 12.0 | 0.00 | 0.10 | 0.00 | 54 | 1010.8 |
| 20260831091158 | 65 | 175 | 7.0 | 10.0 | 0.00 | 0.10 | 0.00 | 52 | 1010.9 |
| 20260831090201 | 65 | 198 | 4.0 | 11.0 | 0.00 | 0.10 | 0.00 | 51 | 1010.9 |
| 20260831085147 | 65 | 184 | 4.0 | 6.0 | 0.00 | 0.10 | 0.00 | 53 | 1010.7 |
| 20260831084153 | 65 | 182 | 3.0 | 9.0 | 0.00 | 0.10 | 0.00 | 52 | 1010.9 |
| 20260831083159 | 65 | 186 | 6.0 | 10.0 | 0.00 | 0.10 | 0.00 | 53 | 1010.9 |
| 20260831082148 | 64 | 197 | 6.0 | 7.0 | 0.00 | 0.10 | 0.00 | 55 | 1011.1 |
| 20260831081150 | 63 | 169 | 2.0 | 4.0 | 0.00 | 0.10 | 0.00 | 58 | 1011.1 |
| 20260831080155 | 63 | 170 | 0.0 | 3.0 | 0.00 | 0.10 | 0.00 | 57 | 1011.1 |
| 20260831075159 | 63 | 170 | 2.0 | 4.0 | 0.00 | 0.10 | 0.00 | 56 | 1011.2 |
| 20260831074204 | 64 | 169 | 3.0 | 7.0 | 0.00 | 0.10 | 0.00 | 56 | 1011.3 |
| 20260831073150 | 63 | 169 | 5.0 | 6.0 | 0.00 | 0.10 | 0.00 | 57 | 1011.3 |
| 20260831072157 | 63 | 169 | 3.0 | 5.0 | 0.00 | 0.10 | 0.00 | 58 | 1011.5 |
| 20260831071202 | 63 | 169 | 0.0 | 5.0 | 0.00 | 0.10 | 0.00 | 57 | 1011.6 |
| 20260831070203 | 62 | 169 | 3.0 | 8.0 | 0.00 | 0.10 | 0.00 | 59 | 1011.6 |
| 20260831065148 | 62 | 172 | 6.0 | 8.0 | 0.00 | 0.10 | 0.00 | 63 | 1011.8 |
| 20260831064150 | 63 | 174 | 6.0 | 8.0 | 0.00 | 0.10 | 0.00 | 60 | 1012.0 |
| 20260831063159 | 64 | 178 | 7.0 | 11.0 | 0.00 | 0.10 | 0.00 | 57 | 1012.0 |
| 20260831062159 | 64 | 186 | 9.0 | 12.0 | 0.00 | 0.10 | 0.00 | 56 | 1011.8 |
| 20260831061148 | 65 | 180 | 6.0 | 11.0 | 0.00 | 0.10 | 0.00 | 54 | 1012.0 |
| 20260831060153 | 65 | 180 | 7.0 | 11.0 | 0.00 | 0.10 | 0.00 | 54 | 1012.0 |
| 20260831055205 | 66 | 197 | 5.0 | 14.0 | 0.00 | 0.10 | 0.10 | 52 | 1012.4 |
| 20260831054213 | 66 | 190 | 7.0 | 12.0 | 0.00 | 0.10 | 0.10 | 53 | 1012.4 |
| 20260831053157 | 66 | 200 | 6.0 | 11.0 | 0.00 | 0.10 | 0.10 | 54 | 1012.4 |
| 20260831052157 | 65 | 189 | 6.0 | 11.0 | 0.00 | 0.10 | 0.10 | 56 | 1012.4 |
| 20260831051224 | 66 | 179 | 6.0 | 10.0 | 0.00 | 0.10 | 0.10 | 55 | 1012.6 |
| 20260831050149 | 66 | 171 | 9.0 | 17.0 | 0.00 | 0.10 | 0.10 | 54 | 1012.6 |
| 20260831045149 | 68 | 185 | 14.0 | 22.0 | 0.00 | 0.10 | 0.10 | 49 | 1012.5 |
| 20260831044153 | 68 | 206 | 14.0 | 23.0 | 0.00 | 0.10 | 0.10 | 47 | 1012.4 |
| 20260831043157 | 68 | 180 | 13.0 | 22.0 | 0.00 | 0.10 | 0.10 | 49 | 1012.4 |
| 20260831042155 | 68 | 180 | 11.0 | 18.0 | 0.00 | 0.10 | 0.10 | 52 | 1012.4 |
| 20260831041223 | 68 | 168 | 13.0 | 18.0 | 0.00 | 0.10 | 0.10 | 50 | 1011.8 |
| 20260831040204 | 68 | 214 | 6.0 | 11.0 | 0.00 | 0.10 | 0.10 | 48 | 1011.8 |
| 20260831035227 | 66 | 188 | 2.0 | 11.0 | 0.00 | 0.10 | 0.10 | 60 | 1011.2 |
| 20260831034157 | 68 | 157 | 6.0 | 8.0 | 0.00 | 0.10 | 0.10 | 54 | 1011.2 |
| 20260831033222 | 69 | 143 | 3.0 | 16.0 | 0.00 | 0.10 | 0.10 | 50 | 1011.2 |
| 20260831032144 | 68 | 169 | 11.0 | 17.0 | 0.00 | 0.10 | 0.10 | 54 | 1011.8 |
| 20260831031152 | 67 | 163 | 8.0 | 14.0 | 0.00 | 0.10 | 0.10 | 60 | 1011.8 |
| 20260831030159 | 66 | 183 | 12.0 | 17.0 | 0.00 | 0.10 | 0.10 | 62 | 1011.8 |
| 20260831025156 | 64 | 167 | 4.0 | 7.0 | 0.00 | 0.10 | 0.10 | 68 | 1011.8 |
| 20260831024222 | 64 | 167 | 3.0 | 5.0 | 0.00 | 0.10 | 0.10 | 69 | 1011.3 |
| 20260831023149 | 64 | 167 | 4.0 | 4.0 | 0.00 | 0.10 | 0.10 | 68 | 1011.3 |
| 20260831022152 | 64 | 167 | 3.0 | 5.0 | 0.00 | 0.10 | 0.10 | 66 | 1011.1 |
| 20260831021218 | 64 | 167 | 5.0 | 8.0 | 0.00 | 0.10 | 0.10 | 68 | 1010.6 |
| 20260831020222 | 64 | 168 | 5.0 | 8.0 | 0.00 | 0.10 | 0.10 | 70 | 1010.6 |
| 20260831015149 | 64 | 186 | 6.0 | 8.0 | 0.00 | 0.10 | 0.10 | 73 | 1010.6 |
| 20260831014159 | 64 | 167 | 5.0 | 7.0 | 0.00 | 0.10 | 0.10 | 70 | 1010.6 |
| 20260831013149 | 66 | 165 | 4.0 | 7.0 | 0.00 | 0.10 | 0.10 | 67 | 1010.6 |
| 20260831012156 | 67 | 148 | 4.0 | 6.0 | 0.00 | 0.10 | 0.10 | 62 | 1010.6 |
| 20260831011202 | 69 | 141 | 2.0 | 5.0 | 0.00 | 0.10 | 0.10 | 56 | 1010.6 |
| 20260831010225 | 69 | 142 | 4.0 | 6.0 | 0.00 | 0.10 | 0.10 | 57 | 1010.6 |
| 20260831005206 | 70 | 125 | 2.0 | 7.0 | 0.00 | 0.10 | 0.10 | 57 | 1010.7 |
| 20260831004150 | 70 | 129 | 0.0 | 4.0 | 0.00 | 0.10 | 0.10 | 57 | 1010.8 |
| 20260831003151 | 70 | 129 | 2.0 | 6.0 | 0.00 | 0.10 | 0.10 | 57 | 1010.8 |
| 20260831002200 | 71 | 136 | 2.0 | 7.0 | 0.00 | 0.10 | 0.10 | 61 | 1010.9 |
| 20260831001201 | 70 | 153 | 3.0 | 10.0 | 0.00 | 0.10 | 0.10 | 62 | 1011.1 |
| 20260831000149 | 70 | 165 | 5.0 | 9.0 | 0.00 | 0.10 | 0.10 | 63 | 1011.1 |
| 20260830235159 | 69 | 144 | 3.0 | 8.0 | 0.00 | 0.10 | 0.10 | 68 | 1011.2 |
| 20260830234204 | 68 | 155 | 5.0 | 8.0 | 0.00 | 0.10 | 0.10 | 69 | 1011.6 |
| 20260830233150 | 67 | 129 | 3.0 | 8.0 | 0.00 | 0.10 | 0.10 | 71 | 1011.6 |
| 20260830232216 | 66 | 142 | 5.0 | 7.0 | 0.00 | 0.10 | 0.10 | 72 | 1011.2 |
| 20260830231152 | 66 | 209 | 3.0 | 6.0 | 0.01 | 0.10 | 0.10 | 77 | 1011.4 |
| 20260830230157 | 65 | 272 | 2.0 | 4.0 | 0.01 | 0.10 | 0.10 | 74 | 1011.4 |
| 20260830225203 | 65 | 297 | 0.0 | 3.0 | 0.04 | 0.11 | 0.10 | 79 | 1011.5 |
| 20260830224148 | 65 | 298 | 2.0 | 4.0 | 0.09 | 0.11 | 0.10 | 81 | 1011.8 |
| 20260830223213 | 64 | 299 | 3.0 | 4.0 | 0.10 | 0.11 | 0.10 | 82 | 1011.8 |
| 20260830222158 | 64 | 311 | 0.0 | 3.0 | 0.10 | 0.11 | 0.10 | 83 | 1011.3 |
| 20260830221207 | 63 | 312 | 1.0 | 3.0 | 0.09 | 0.10 | 0.09 | 81 | 1011.4 |
| 20260830220206 | 64 | 311 | 1.0 | 5.0 | 0.09 | 0.10 | 0.09 | 76 | 1011.4 |
| 20260830215227 | 66 | 272 | 4.0 | 14.0 | 0.05 | 0.06 | 0.05 | 66 | 1012.0 |
| 20260830214210 | 69 | 321 | 10.0 | 16.0 | 0.00 | 0.01 | 0.00 | 50 | 1011.2 |
| 20260830213149 | 70 | 346 | 6.0 | 19.0 | 0.00 | 0.01 | 0.00 | 45 | 1011.2 |
| 20260830212156 | 72 | 307 | 9.0 | 19.0 | 0.00 | 0.01 | 0.00 | 42 | 1010.6 |
| 20260830211202 | 75 | 17 | 15.0 | 26.0 | 0.00 | 0.01 | 0.00 | 34 | 1010.0 |
| 20260830210203 | 81 | 5 | 18.0 | 33.0 | 0.00 | 0.01 | 0.00 | 28 | 1010.0 |
| 20260830205150 | 83 | 34 | 5.0 | 8.0 | 0.00 | 0.01 | 0.00 | 27 | 1009.3 |
| 20260830204203 | 83 | 81 | 5.0 | 8.0 | 0.00 | 0.01 | 0.00 | 26 | 1008.8 |
| 20260830203148 | 83 | 99 | 5.0 | 9.0 | 0.00 | 0.01 | 0.00 | 27 | 1008.8 |
| 20260830202152 | 83 | 111 | 4.0 | 10.0 | 0.00 | 0.01 | 0.00 | 27 | 1008.7 |
| 20260830201157 | 84 | 111 | 4.0 | 8.0 | 0.00 | 0.01 | 0.00 | 25 | 1008.8 |
| 20260830200159 | 83 | 86 | 2.0 | 8.0 | 0.00 | 0.01 | 0.00 | 26 | 1008.8 |
| 20260830194207 | 82 | 130 | 5.0 | 10.0 | 0.00 | 0.01 | 0.00 | 25 | 1008.9 |
| 20260830193155 | 82 | 159 | 6.0 | 9.0 | 0.00 | 0.01 | 0.00 | 25 | 1008.9 |
| 20260830192201 | 82 | 144 | 5.0 | 12.0 | 0.00 | 0.01 | 0.00 | 25 | 1009.3 |
| 20260830191206 | 82 | 113 | 3.0 | 8.0 | 0.00 | 0.01 | 0.00 | 25 | 1009.3 |
| 20260830190151 | 82 | 97 | 2.0 | 9.0 | 0.00 | 0.01 | 0.00 | 27 | 1009.3 |
| 20260830185149 | 82 | 145 | 2.0 | 6.0 | 0.00 | 0.01 | 0.00 | 27 | 1009.4 |
| 20260830184154 | 81 | 146 | 4.0 | 7.0 | 0.00 | 0.01 | 0.00 | 27 | 1009.7 |
| 20260830183200 | 81 | 148 | 1.0 | 6.0 | 0.00 | 0.01 | 0.00 | 28 | 1009.7 |
| 20260830182223 | 81 | 125 | 4.0 | 7.0 | 0.00 | 0.01 | 0.00 | 29 | 1009.9 |
| 20260830181207 | 80 | 122 | 1.0 | 5.0 | 0.00 | 0.01 | 0.00 | 28 | 1010.0 |
| 20260830180150 | 80 | 131 | 3.0 | 5.0 | 0.00 | 0.01 | 0.00 | 31 | 1010.0 |
| 20260830175151 | 79 | 165 | 2.0 | 7.0 | 0.00 | 0.01 | 0.00 | 28 | 1010.3 |
| 20260830174155 | 78 | 96 | 3.0 | 6.0 | 0.00 | 0.01 | 0.00 | 32 | 1010.6 |
| 20260830173205 | 78 | 155 | 1.0 | 5.0 | 0.00 | 0.01 | 0.00 | 31 | 1010.6 |
| 20260830172152 | 78 | 230 | 2.0 | 4.0 | 0.00 | 0.01 | 0.00 | 31 | 1010.6 |
| 20260830171154 | 76 | 230 | 0.0 | 1.0 | 0.00 | 0.01 | 0.00 | 32 | 1010.8 |
| 20260830170203 | 76 | 230 | 0.0 | 2.0 | 0.00 | 0.01 | 0.00 | 33 | 1010.8 |
| 20260830165151 | 75 | 230 | 0.0 | 2.0 | 0.00 | 0.01 | 0.00 | 37 | 1011.1 |
| 20260830164158 | 74 | 230 | 0.0 | 3.0 | 0.00 | 0.01 | 0.00 | 37 | 1011.2 |
| 20260830163159 | 73 | 230 | 0.0 | 2.0 | 0.00 | 0.01 | 0.00 | 41 | 1011.2 |
| 20260830162208 | 72 | 230 | 1.0 | 5.0 | 0.00 | 0.01 | 0.00 | 40 | 1011.2 |
| 20260830161151 | 72 | 223 | 3.0 | 6.0 | 0.00 | 0.01 | 0.00 | 42 | 1011.2 |
| 20260830160208 | 71 | 214 | 2.0 | 4.0 | 0.00 | 0.01 | 0.00 | 43 | 1011.2 |
| 20260830155213 | 71 | 211 | 2.0 | 6.0 | 0.00 | 0.01 | 0.00 | 44 | 1010.9 |
| 20260830154156 | 71 | 177 | 2.0 | 4.0 | 0.00 | 0.01 | 0.00 | 44 | 1010.6 |
| 20260830153200 | 70 | 173 | 2.0 | 5.0 | 0.00 | 0.01 | 0.00 | 43 | 1010.6 |
| 20260830152203 | 70 | 173 | 0.0 | 3.0 | 0.00 | 0.01 | 0.00 | 45 | 1010.6 |
| 20260830151209 | 69 | 173 | 1.0 | 4.0 | 0.00 | 0.01 | 0.00 | 45 | 1010.5 |
| 20260830150150 | 69 | 173 | 0.0 | 2.0 | 0.00 | 0.01 | 0.00 | 46 | 1010.5 |
| 20260830145156 | 68 | 173 | 2.0 | 3.0 | 0.00 | 0.01 | 0.00 | 48 | 1010.6 |
| 20260830144158 | 67 | 173 | 0.0 | 3.0 | 0.00 | 0.01 | 0.00 | 49 | 1010.6 |
| 20260830143201 | 66 | 173 | 2.0 | 3.0 | 0.00 | 0.01 | 0.00 | 50 | 1010.6 |
| 20260830142152 | 66 | 173 | 1.0 | 3.0 | 0.00 | 0.01 | 0.00 | 53 | 1010.5 |
| 20260830141153 | 65 | 173 | 2.0 | 6.0 | 0.00 | 0.01 | 0.00 | 53 | 1010.6 |
| 20260830140200 | 64 | 173 | 3.0 | 5.0 | 0.00 | 0.01 | 0.00 | 57 | 1010.6 |
| 20260830135200 | 63 | 173 | 0.0 | 0.0 | 0.00 | 0.01 | 0.00 | 56 | 1010.6 |
| 20260830134204 | 63 | 173 | 0.0 | 0.0 | 0.00 | 0.01 | 0.00 | 58 | 1010.1 |
| 20260830133150 | 62 | 173 | 1.0 | 3.0 | 0.00 | 0.01 | 0.00 | 57 | 1010.1 |
| 20260830132151 | 61 | 173 | 0.0 | 4.0 | 0.00 | 0.01 | 0.00 | 60 | 1010.3 |
| 20260830131152 | 61 | 173 | 3.0 | 7.0 | 0.00 | 0.01 | 0.00 | 61 | 1009.9 |
| 20260830130152 | 61 | 173 | 6.0 | 7.0 | 0.00 | 0.01 | 0.00 | 62 | 1009.9 |
| 20260830125153 | 60 | 165 | 6.0 | 7.0 | 0.00 | 0.01 | 0.00 | 63 | 1009.9 |